EW1792 Weather Reports


Display with metric or nautical units.
time (UTC)temp
F
wind
direction
speed
MPH
gust
MPH
rain 1hr
in
rain 24hr
in
rain mn
in
humidity
%
barometer
mb
20260505023537 67 217 9.0 13.0 0.00 0.02 0.02 63 1007.2
20260505023042 67 204 7.0 11.0 0.00 0.02 0.02 62 1007.2
20260505022535 67 202 7.0 10.0 0.00 0.02 0.02 62 1007.2
20260505022035 67 198 7.0 10.0 0.00 0.02 0.02 62 1007.0
20260505021540 68 220 6.0 10.0 0.00 0.02 0.02 62 1007.0
20260505021035 68 208 8.0 11.0 0.00 0.02 0.02 62 1007.1
20260505020534 68 211 7.0 12.0 0.00 0.02 0.02 62 1007.0
20260505020036 68 221 6.0 12.0 0.00 0.02 0.02 62 1007.0
20260505015533 68 218 7.0 10.0 0.00 0.03 0.02 62 1006.9
20260505015033 68 211 7.0 11.0 0.00 0.03 0.02 62 1006.9
20260505014540 68 204 7.0 11.0 0.00 0.03 0.02 62 1006.9
20260505014033 68 206 6.0 9.0 0.00 0.03 0.02 61 1006.9
20260505013532 69 198 5.0 10.0 0.00 0.03 0.02 61 1006.9
20260505013034 69 200 5.0 10.0 0.00 0.03 0.02 61 1006.9
20260505012531 69 207 5.0 9.0 0.00 0.03 0.02 60 1006.8
20260505012031 69 202 5.0 9.0 0.00 0.03 0.02 59 1006.9
20260505011533 70 198 7.0 11.0 0.00 0.03 0.02 59 1006.9
20260505011030 70 199 6.0 11.0 0.00 0.03 0.02 59 1006.9
20260505010532 70 210 7.0 10.0 0.00 0.03 0.02 58 1006.9
20260505010029 70 217 7.0 11.0 0.00 0.03 0.02 58 1006.9
20260505005529 71 223 7.0 11.0 0.00 0.03 0.02 58 1006.9
20260505005030 71 213 7.0 10.0 0.00 0.03 0.02 57 1006.8
20260505004536 71 223 6.0 11.0 0.00 0.03 0.02 57 1006.9
20260505004028 71 234 6.0 13.0 0.00 0.03 0.02 57 1006.9
20260505003528 71 222 8.0 13.0 0.00 0.03 0.02 56 1006.9
20260505003027 71 217 7.0 13.0 0.00 0.03 0.02 56 1006.8
20260505002528 72 223 9.0 13.0 0.00 0.03 0.02 56 1006.8
20260505002029 72 196 7.0 17.0 0.00 0.03 0.02 56 1006.8
20260505001634 72 200 8.0 17.0 0.00 0.03 0.02 55 1006.8
20260505001026 72 223 10.0 16.0 0.00 0.03 0.02 55 1006.7
20260505000526 72 211 8.0 16.0 0.00 0.03 0.02 54 1006.8
20260505000030 73 229 7.0 11.0 0.00 0.03 0.02 54 1007.0
20260504235525 73 215 7.0 11.0 0.00 0.03 0.02 54 1007.0
20260504235026 73 216 6.0 13.0 0.00 0.03 0.02 54 1007.0
20260504234524 74 224 6.0 17.0 0.00 0.03 0.02 53 1007.1
20260504234023 74 189 11.0 18.0 0.00 0.03 0.02 53 1007.2
20260504233523 74 205 7.0 15.0 0.00 0.03 0.02 53 1007.1
20260504233023 74 208 8.0 13.0 0.00 0.03 0.02 53 1007.2
20260504232523 75 231 9.0 14.0 0.00 0.03 0.02 52 1007.3
20260504232023 75 231 8.0 13.0 0.00 0.03 0.02 52 1007.3
20260504231524 74 234 7.0 14.0 0.00 0.03 0.02 52 1007.3
20260504231021 74 217 10.0 17.0 0.00 0.03 0.02 53 1007.3
20260504230521 74 203 10.0 16.0 0.00 0.03 0.02 52 1007.3
20260504230122 74 202 6.0 18.0 0.00 0.03 0.02 52 1007.5
20260504225520 75 207 9.0 18.0 0.00 0.03 0.02 50 1007.7
20260504225019 75 240 8.0 15.0 0.00 0.03 0.02 51 1007.6
20260504224518 75 200 11.0 15.0 0.00 0.03 0.02 51 1007.7
20260504224019 75 233 7.0 20.0 0.00 0.03 0.02 52 1007.7
20260504223518 75 221 10.0 19.0 0.00 0.03 0.02 50 1007.7
20260504223018 75 229 9.0 18.0 0.00 0.03 0.02 51 1007.8
20260504222518 75 243 10.0 18.0 0.00 0.03 0.02 51 1007.8
20260504222019 75 247 10.0 21.0 0.00 0.03 0.02 50 1007.8
20260504221521 75 232 10.0 20.0 0.00 0.03 0.02 50 1007.8
20260504221017 76 215 13.0 20.0 0.00 0.03 0.02 49 1007.7
20260504220517 76 248 8.0 22.0 0.00 0.03 0.02 52 1007.9
20260504220015 76 205 12.0 20.0 0.00 0.03 0.02 51 1007.7
20260504215515 76 225 7.0 20.0 0.00 0.03 0.02 53 1007.8
20260504215017 75 227 9.0 20.0 0.00 0.03 0.02 55 1007.7
20260504214515 75 254 9.0 22.0 0.00 0.03 0.02 54 1008.0
20260504214014 75 223 11.0 22.0 0.00 0.03 0.02 53 1008.0
20260504213514 76 222 9.0 19.0 0.00 0.03 0.02 54 1007.9
20260504213035 75 188 9.0 21.0 0.00 0.03 0.02 54 1007.8
20260504212516 75 219 10.0 21.0 0.00 0.03 0.02 54 1007.8
20260504212015 75 207 12.0 20.0 0.00 0.03 0.02 54 1007.8
20260504211517 76 221 6.0 17.0 0.00 0.03 0.02 57 1007.8
20260504211016 76 229 8.0 17.0 0.00 0.03 0.02 56 1007.8
20260504210512 76 246 7.0 16.0 0.00 0.03 0.02 57 1007.9
20260504210014 75 228 9.0 15.0 0.00 0.03 0.02 56 1007.9
20260504205511 75 202 8.0 23.0 0.00 0.03 0.02 56 1008.0
20260504205010 75 238 11.0 19.0 0.00 0.03 0.02 57 1008.1
20260504204511 75 207 8.0 18.0 0.00 0.03 0.02 56 1008.1
20260504204010 75 199 9.0 18.0 0.00 0.03 0.02 56 1008.1
20260504203513 75 273 7.0 16.0 0.00 0.03 0.02 55 1008.2
20260504203010 76 275 10.0 19.0 0.00 0.03 0.02 54 1008.4
20260504202508 76 273 5.0 17.0 0.00 0.03 0.02 56 1008.3
20260504202008 76 267 9.0 17.0 0.00 0.03 0.02 55 1008.4
20260504201512 76 261 8.0 17.0 0.00 0.03 0.02 57 1008.6
20260504201008 76 226 12.0 19.0 0.00 0.03 0.02 55 1008.7
20260504200504 75 269 9.0 15.0 0.00 0.03 0.02 57 1009.0
20260504200003 75 287 10.0 17.0 0.00 0.03 0.02 55 1008.9
20260504195502 75 216 9.0 19.0 0.00 0.03 0.02 57 1009.2
20260504195100 74 223 10.0 19.0 0.00 0.03 0.02 58 1009.3
20260504194608 74 247 9.0 17.0 0.00 0.03 0.02 58 1009.4
20260504194059 73 256 7.0 18.0 0.00 0.03 0.02 59 1009.4
20260504193558 73 213 6.0 17.0 0.00 0.03 0.02 59 1009.4
20260504193110 73 259 9.0 17.0 0.00 0.03 0.02 59 1009.7
20260504192556 73 274 7.0 19.0 0.00 0.03 0.02 59 1009.7
20260504192056 73 223 11.0 18.0 0.00 0.03 0.02 60 1009.7
20260504191556 73 194 10.0 17.0 0.00 0.03 0.02 60 1009.7
20260504191056 73 261 6.0 18.0 0.00 0.03 0.02 60 1009.7
20260504190559 73 234 8.0 18.0 0.00 0.03 0.02 59 1009.6
20260504190114 73 253 10.0 18.0 0.00 0.03 0.02 59 1009.6
20260504185554 72 267 12.0 20.0 0.00 0.03 0.02 59 1009.5
20260504185054 72 215 12.0 20.0 0.00 0.03 0.02 59 1009.5
20260504184600 72 205 9.0 19.0 0.00 0.03 0.02 59 1009.6
20260504184052 72 192 10.0 21.0 0.00 0.03 0.02 62 1009.5
20260504183556 72 230 13.0 22.0 0.00 0.03 0.02 62 1009.6
20260504183050 71 242 12.0 22.0 0.00 0.03 0.02 61 1009.5
20260504182555 71 208 11.0 19.0 0.00 0.03 0.02 65 1009.6
20260504182049 70 214 9.0 20.0 0.00 0.03 0.02 66 1009.6
20260504181546 69 196 13.0 20.0 0.00 0.03 0.02 65 1009.7
20260504181047 69 225 8.0 17.0 0.00 0.03 0.02 67 1009.8
20260504180546 68 247 9.0 20.0 0.00 0.03 0.02 68 1009.8
20260504180044 68 226 14.0 22.0 0.00 0.03 0.02 66 1009.9
20260504175541 67 217 14.0 22.0 0.00 0.03 0.02 68 1009.8
20260504175043 67 229 10.0 16.0 0.00 0.03 0.02 70 1009.7
20260504174538 66 205 9.0 15.0 0.00 0.03 0.02 70 1009.7
20260504174039 65 204 7.0 13.0 0.00 0.03 0.02 74 1009.9
20260504173539 64 211 7.0 13.0 0.00 0.03 0.02 74 1009.9
20260504173046 63 198 8.0 11.0 0.00 0.03 0.02 75 1010.0
20260504172537 62 196 7.0 16.0 0.00 0.03 0.02 76 1010.1
20260504172037 62 209 8.0 15.0 0.00 0.03 0.02 77 1010.0
20260504171537 61 212 9.0 15.0 0.00 0.03 0.02 78 1009.8
20260504171036 60 204 10.0 18.0 0.00 0.03 0.02 80 1009.9
20260504170537 60 216 10.0 18.0 0.00 0.03 0.02 80 1009.9
20260504151020 60 209 6.0 11.0 0.00 0.03 0.02 72 1010.2
20260504150521 60 175 6.0 11.0 0.00 0.03 0.02 73 1010.2
20260504141011 58 242 8.0 19.0 0.00 0.03 0.02 76 1010.7
20260504140508 57 186 10.0 21.0 0.00 0.03 0.02 76 1010.7
20260504130555 53 207 11.0 19.0 0.00 0.03 0.02 82 1011.9
20260504110538 52 206 7.0 15.0 0.00 0.01 0.00 75 1011.7
20260504100531 51 211 8.0 13.0 0.00 0.01 0.00 72 1011.7
20260504081510 51 203 8.0 11.0 0.00 0.01 0.00 67 1012.4
20260504081011 51 215 8.0 11.0 0.00 0.01 0.00 67 1012.5
20260504080510 52 194 6.0 9.0 0.00 0.01 0.00 67 1012.6
20260504050543 53 202 7.0 14.0 0.00 0.01 0.00 59 1014.1
20260504045542 54 194 7.0 12.0 0.00 0.01 0.00 59 1014.1
20260504045039 54 208 7.0 12.0 0.00 0.01 0.00 59 1014.2
20260504044554 54 210 7.0 11.0 0.00 0.01 0.00 59 1014.2
20260504044037 54 212 8.0 13.0 0.00 0.01 0.00 58 1014.2
20260504043536 55 205 9.0 13.0 0.00 0.01 0.00 58 1014.2
20260504043036 55 228 7.0 13.0 0.00 0.01 0.00 58 1014.2
20260504042534 55 209 7.0 13.0 0.00 0.01 0.00 57 1014.2
20260504042034 55 211 7.0 12.0 0.00 0.01 0.00 57 1014.2
20260504041534 55 211 7.0 12.0 0.00 0.01 0.00 57 1014.3
20260504041032 55 220 7.0 10.0 0.00 0.01 0.00 57 1014.3
20260504040533 55 225 7.0 11.0 0.00 0.01 0.00 56 1014.4
20260504040033 55 223 7.0 12.0 0.00 0.01 0.00 56 1014.5
20260504035530 55 231 7.0 14.0 0.00 0.01 0.01 57 1014.4
20260504035029 55 207 8.0 14.0 0.00 0.01 0.01 56 1014.5
20260504034538 55 215 7.0 15.0 0.00 0.01 0.01 57 1014.4
20260504034030 55 219 8.0 15.0 0.00 0.01 0.01 57 1014.5
20260504033529 55 212 7.0 15.0 0.00 0.01 0.01 57 1014.4
20260504033039 55 215 8.0 15.0 0.00 0.01 0.01 57 1014.5
20260504032529 56 217 9.0 15.0 0.00 0.01 0.01 57 1014.5
20260504032029 55 214 8.0 15.0 0.00 0.01 0.01 57 1014.6
20260504031533 55 219 8.0 14.0 0.00 0.01 0.01 58 1014.5
20260504031029 55 201 9.0 13.0 0.00 0.01 0.01 58 1014.6
20260504030528 55 210 9.0 15.0 0.00 0.01 0.01 58 1014.8
20260504030027 55 221 10.0 15.0 0.00 0.01 0.01 59 1014.7
20260504025527 55 192 8.0 17.0 0.00 0.01 0.01 60 1014.7
20260504025029 55 237 9.0 16.0 0.00 0.01 0.01 61 1014.6
20260504024527 55 210 11.0 16.0 0.00 0.01 0.01 61 1014.6
20260504024026 55 233 7.0 11.0 0.00 0.01 0.01 61 1014.8